This demonstration page uses our WeatherBlox Daily Observations layout. Learn more.

Left ArrowRight Arrow

Hourly Observations for June 4, 2021

Temp ( °F °C ) Dew Point ( °F °C ) Humidity (%) Winds ( mph kmh ) Pressure ( in mb ) Visibility ( mi km ) Precip ( " mm )
12:53 am 00:53 Clear 68 20 58 14.4 70 70 E 7 11 29.92 1013 10 16 0.00 0.00
1:53 am 01:53 Clear 67 19.4 58 14.4 73 73 ESE 10 17 29.91 1013 10 16 0.00 0.00
2:53 am 02:53 Clear 66 18.9 57 13.9 73 73 ESE 10 17 29.91 1013 10 16 0.00 0.00
3:53 am 03:53 Clear 65 18.3 58 14.4 78 78 ESE 7 11 29.91 1013 10 16 0.00 0.00
4:53 am 04:53 Partly Cloudy 64 17.8 58 14.4 81 81 E 5 7 29.91 1013 10 16 0.00 0.00
5:53 am 05:53 Clear 63 17.2 58 14.4 84 84 ESE 6 9 29.92 1013 10 16 0.00 0.00
6:53 am 06:53 Sunny 62 16.7 58 14.4 86 86 E 6 9 29.93 1014 10 16 0.00 0.00
7:53 am 07:53 Sunny 65 18.3 58 14.4 78 78 ESE 8 13 29.95 1014 10 16 0.00 0.00
8:53 am 08:53 Sunny 69 20.6 60 15.6 73 73 ESE 7 11 29.96 1014 10 16 0.00 0.00
9:53 am 09:53 Sunny 72 22.2 59 15 64 64 ESE 8 13 29.96 1014 10 16 0.00 0.00
10:53 am 10:53 Sunny 76 24.4 57 13.9 52 52 E 9 15 29.95 1014 10 16 0.00 0.00
11:53 am 11:53 Sunny 77 25 55 12.8 47 47 VRB 5 7 29.93 1014 10 16 0.00 0.00
12:53 pm 12:53 Sunny 81 27.2 51 10.6 35 35 SE 9 15 29.91 1013 10 16 0.00 0.00
1:53 pm 13:53 Sunny 83 28.3 52 11.1 34 34 E 8 13 29.89 1012 10 16 0.00 0.00
2:53 pm 14:53 Mostly Sunny 84 28.9 51 10.6 32 32 ESE 9 15 29.86 1011 10 16 0.00 0.00
3:53 pm 15:53 Mostly Sunny 84 28.9 52 11.1 33 33 E 14 22 29.85 1011 10 16 0.00 0.00
4:53 pm 16:53 Sunny 84 28.9 52 11.1 33 33 E 10 17 29.84 1010 10 16 0.00 0.00
5:53 pm 17:53 Sunny 83 28.3 50 10 32 32 ESE 8 13 29.84 1010 10 16 0.00 0.00
6:53 pm 18:53 Sunny 83 28.3 49 9.4 31 31 SE 7 11 29.83 1010 10 16 0.00 0.00
7:53 pm 19:53 Mostly Sunny 83 28.3 51 10.6 33 33 ESE 13 20 29.82 1010 10 16 0.00 0.00
8:53 pm 20:53 Sunny 80 26.7 51 10.6 37 37 SE 9 15 29.83 1010 10 16 0.00 0.00
9:53 pm 21:53 Clear 78 25.6 53 11.7 42 42 SE 12 19 29.85 1011 10 16 0.00 0.00
10:53 pm 22:53 Clear 75 23.9 56 13.3 52 52 ESE 12 19 29.86 1011 10 16 0.00 0.00
11:53 pm 23:53 Clear 74 23.3 56 13.3 54 54 ESE 13 20 29.87 1011 10 16 0.00 0.00

Powered by AerisWeather